Location: Asheville, NC
(35.6000°N, 82.5500°W)
Time: 03:12:41
(UTC-04:00)

ESTCUBE 1 - Visible Passes

Search period start: 20 June 2018 00:00
Search period end: 30 June 2018 00:00
Orbit: 647 x 662 km, 98.0° (Epoch: 20 June)

Date Brightness Start Highest point End Pass type
(mag) Time Alt. Az. Time Alt. Az. Time Alt. Az.
20 Jun ? 01:30:57 13° WNW 01:30:57 13° WNW 01:31:54 10° WNW visible
21 Jun ? 00:21:16 51° N 00:21:16 51° N 00:24:39 10° NNW visible
21 Jun ? 23:11:35 15° ENE 23:11:41 15° ENE 23:14:12 10° NNE visible
22 Jun ? 00:49:28 33° NW 00:49:28 33° NW 00:52:20 10° NNW visible
22 Jun ? 23:39:47 29° ENE 23:39:47 29° ENE 23:43:10 10° N visible
23 Jun ? 01:17:40 18° WNW 01:17:40 18° WNW 01:19:29 10° NW visible
24 Jun ? 00:07:59 49° NNE 00:07:59 49° NNE 00:11:28 10° N visible
24 Jun ? 22:58:18 11° ENE 22:58:43 11° ENE 22:59:45 10° NE visible
25 Jun ? 00:36:11 43° NW 00:36:11 43° NW 00:39:21 10° NNW visible
25 Jun ? 23:26:31 21° ENE 23:26:31 21° ENE 23:29:40 10° NNE visible
26 Jun ? 01:04:23 24° WNW 01:04:23 24° WNW 01:06:48 10° NW visible
26 Jun ? 23:54:43 39° NE 23:54:43 39° NE 23:58:12 10° N visible
27 Jun ? 01:32:36 12° WNW 01:32:36 12° WNW 01:33:24 10° WNW visible
28 Jun ? 00:22:55 51° NNW 00:22:55 51° NNW 00:26:16 10° NNW visible
28 Jun ? 23:13:15 16° ENE 23:13:17 16° ENE 23:15:56 10° NNE visible
29 Jun ? 00:51:08 32° NW 00:51:08 32° NW 00:53:56 10° NNW visible
29 Jun ? 23:41:28 29° ENE 23:41:28 29° ENE 23:44:50 10° N visible
